Ketchikan, AK

9:25 AM AKDT on September 26, 2017 (GMT -0800)
Ketchikan International

Weather History for PAKT - March, 2014

Change the Weather History Date:

Monday, March 3, 2014

  Actual Average Record
Temperature  
Mean Temperature 22 °F -  
Max Temperature 28 °F 42 °F 52 °F (1963)
Min Temperature 16 °F 31 °F 3 °F (1955)
Degree Days  
Heating Degree Days 43    
Moisture  
Dew Point 0 °F    
Average Humidity 38    
Maximum Humidity 52    
Minimum Humidity 25    
Precipitation  
Precipitation 0.00 in - - ()
Sea Level Pressure  
Sea Level Pressure 29.87 in    
Wind  
Wind Speed 3 mph (SSE)    
Max Wind Speed 13 mph    
Max Gust Speed -    
Visibility 10 miles    
Events      
Averages and records for this station are not official NWS values.
T = Trace of Precipitation, MM = Missing Value Source: NWS Daily Summary

Daily Weather History Graph

Daily Weather History Graph

Search for Another Location

Airport or City:

Trip Planner

Search our weather history database for the weather conditions in past years. The results will help you decide how hot, cold, wet, or windy it might be!

Date:

Astronomy

Mar. 03, 2014 Rise Set
Actual Time 6:31 AM AKST 5:26 PM AKST
Civil Twilight 5:55 AM AKST 6:03 PM AKST
Nautical Twilight 5:13 AM AKST 6:45 PM AKST
Astronomical Twilight 4:30 AM AKST 7:28 PM AKST
Moon 7:12 AM AKST (3/3) 9:16 PM AKST (3/3)
Length of Visible Light 12h 08m
Length of Day
10h 54m
Waxing Crescent, 9% of the Moon is Illuminated
Mar 3
Waxing Crescent
Mar 8
First Quarter
Mar 16
Full
Mar 23
Last Quarter
Mar 30
New

Hourly Weather History & Observations

Time (AKST) Temp. Windchill Dew Point Humidity Pressure Visibility Wind Dir Wind Speed Gust Speed Precip Events Conditions
12:53 AM 21.9 °F - -0.0 °F 38% 29.75 in 10.0 mi Calm Calm - N/A   Overcast
1:53 AM 23.0 °F - 3.0 °F 42% 29.76 in 10.0 mi Calm Calm - N/A   Overcast
3:53 AM 24.1 °F - -2.0 °F 32% 29.78 in 10.0 mi Calm Calm - N/A   Overcast
4:53 AM 19.9 °F - -0.9 °F 40% 29.79 in 10.0 mi Calm Calm - N/A   Overcast
5:53 AM 21.9 °F - -0.0 °F 38% 29.80 in 10.0 mi Calm Calm - N/A   Overcast
6:53 AM 19.9 °F - 1.9 °F 46% 29.81 in 10.0 mi Calm Calm - N/A   Overcast
7:53 AM 21.9 °F - 1.9 °F 42% 29.82 in 10.0 mi Calm Calm - N/A   Overcast
8:53 AM 24.1 °F 17.0 °F -0.9 °F 34% 29.82 in 10.0 mi ESE 5.8 mph - N/A   Overcast
9:53 AM 26.1 °F 15.0 °F -0.0 °F 32% 29.83 in 10.0 mi SE 12.7 mph - N/A   Mostly Cloudy
10:53 AM 25.0 °F 15.5 °F -0.0 °F 34% 29.84 in 10.0 mi SE 9.2 mph - N/A   Scattered Clouds
11:53 AM 27.0 °F - -4.0 °F 26% 29.85 in 10.0 mi Calm Calm - N/A   Partly Cloudy
12:53 PM 28.0 °F 24.2 °F -4.0 °F 25% 29.85 in 10.0 mi Variable 3.5 mph - N/A   Partly Cloudy
1:53 PM 27.0 °F 19.5 °F 1.0 °F 33% 29.86 in 10.0 mi SSE 6.9 mph - N/A   Scattered Clouds
2:53 PM 27.0 °F 20.5 °F -0.9 °F 30% 29.88 in 10.0 mi SSE 5.8 mph - N/A   Scattered Clouds
3:53 PM 27.0 °F 23.0 °F -0.0 °F 31% 29.89 in 10.0 mi Variable 3.5 mph - N/A   Scattered Clouds
4:53 PM 26.1 °F 19.4 °F 1.0 °F 34% 29.90 in 10.0 mi SE 5.8 mph - N/A   Scattered Clouds
5:53 PM 25.0 °F 14.8 °F 3.0 °F 39% 29.92 in 10.0 mi ESE 10.4 mph - N/A   Clear
6:53 PM 21.9 °F 13.4 °F 1.0 °F 40% 29.94 in 10.0 mi SE 6.9 mph - N/A   Clear
7:53 PM 19.9 °F 12.1 °F 1.0 °F 44% 29.96 in 10.0 mi South 5.8 mph - N/A   Clear
8:53 PM 18.0 °F 12.7 °F 1.0 °F 48% 29.97 in 10.0 mi SSW 3.5 mph - N/A   Clear
9:53 PM 19.0 °F 13.9 °F -0.0 °F 43% 29.99 in 10.0 mi South 3.5 mph - N/A   Clear
10:53 PM 16.0 °F 8.8 °F 1.0 °F 52% 30.01 in 10.0 mi SSW 4.6 mph - N/A   Clear
11:53 PM 17.1 °F - -0.0 °F 47% 30.03 in 10.0 mi Calm Calm - N/A   Clear